カタログに戻る

STARLINK-35988

運用中通信VLEO
NORAD 66615·PAYLOAD·🇺🇸 United States

打ち上げ Nov 22, 2025 から Cape Canaveral Space Force Station

Loading…

次のパス (今後24時間)

TLE

最新Source: CelesTrak SupGP

元期: Sep 14, 2026, 21:40 UTC

1 66615C 25270AD  26257.90326389  .00050834  00000+0  18414-2 0  2578
2 66615  43.0001  67.4919 0001444 273.7738 131.5933 15.27549748    18

AllMySatでSTARLINK-35988をリアルタイム追跡

Download on the App Store